ECMWFFLT1_250_spd_021.txt.gz
Wind_Speed
44 43 43 43 42 42 41 40 39 39 39 40 40 39 36 34 32 32 33 34 35 34 34 37 38 35 33 33 34 36 37 37 36 38 40 40 40 41 42 44 45 45 45 45 44 43 42 41 41 41 41 42 42 43 44 45 44 42 40 38 36 35 35
43 43 43 41 41 41 41 41 41 41 41 41 40 38 36 34 33 32 33 34 34 32 32 33 35 34 33 32 33 34 36 38 39 40 40 40 39 39 41 42 44 45 45 45 45 45 43 43 43 43 43 43 43 44 45 45 44 42 40 38 36 35 35
42 43 42 39 38 39 41 42 43 43 43 42 41 38 37 37 37 36 35 34 33 32 31 30 32 33 34 34 34 35 38 40 40 40 39 38 38 39 41 43 44 44 44 44 46 46 46 45 46 45 44 43 43 45 46 46 44 42 41 38 35 35 34
42 42 42 39 39 40 42 43 43 42 42 42 41 40 41 41 40 38 36 34 32 31 30 29 29 30 32 34 35 36 38 39 39 39 39 38 38 40 42 44 43 42 41 43 46 46 46 46 45 45 44 44 45 47 47 45 43 42 40 37 35 34 34
43 44 44 43 42 41 42 43 44 43 42 42 43 43 43 42 41 39 36 34 32 31 31 31 30 29 30 32 33 35 36 37 39 39 39 39 39 41 43 43 41 39 40 43 45 45 45 45 44 43 44 45 46 46 45 43 42 41 39 37 35 34 34
45 46 47 47 45 42 40 41 42 43 44 45 45 45 43 41 40 38 37 35 33 32 33 33 33 32 32 33 34 35 36 37 38 39 40 40 41 42 42 40 39 39 41 42 44 44 44 44 44 43 43 44 45 43 42 41 41 40 37 36 35 35 35
47 49 50 49 48 46 43 42 41 41 43 44 44 42 40 38 38 37 37 36 35 34 34 34 34 35 35 36 37 37 38 38 38 39 41 42 42 42 40 39 39 41 42 42 43 43 43 43 43 42 41 42 41 40 39 39 40 39 38 37 36 36 36
47 50 51 51 50 49 48 47 45 43 41 39 39 38 38 38 38 37 37 37 37 36 36 35 35 36 37 38 39 39 39 40 41 42 43 44 44 43 41 41 42 43 43 43 43 43 42 42 41 40 40 40 39 39 38 39 39 40 40 39 38 38 38
47 49 51 52 52 52 51 50 49 47 45 42 40 40 40 40 40 39 39 39 38 38 38 38 38 39 40 41 42 42 43 44 46 46 46 46 45 44 44 44 45 45 45 44 44 44 42 41 41 41 40 40 40 39 39 40 40 41 40 40 40 40 41
47 48 50 52 53 53 53 52 50 50 48 47 45 45 44 44 43 43 42 42 41 41 41 41 41 42 43 45 46 47 49 50 49 48 46 45 45 45 45 46 47 47 46 47 47 46 44 43 42 42 42 42 42 41 41 41 41 41 40 40 41 42 43
47 48 48 49 50 51 52 52 51 50 49 48 47 47 46 46 46 46 45 45 44 44 44 44 45 45 46 47 48 49 50 49 47 45 44 44 45 46 47 48 48 48 49 50 49 47 46 45 45 44 44 44 44 43 43 43 42 41 40 40 41 42 43
46 47 48 48 48 49 49 50 50 50 50 49 48 48 48 47 47 47 47 47 47 47 47 47 48 48 48 49 49 48 47 45 45 45 45 46 46 47 48 49 50 51 52 52 50 48 48 48 47 47 47 46 46 45 45 44 42 41 40 40 41 42 44
44 47 48 48 48 48 48 49 50 50 50 50 50 50 50 50 49 49 49 49 49 49 49 49 49 49 49 49 49 48 47 46 47 48 48 48 48 49 50 51 53 54 54 53 51 50 50 51 50 50 49 48 48 47 46 44 43 41 40 40 41 43 44
48 48 48 48 49 49 49 50 50 51 51 51 51 52 52 52 52 51 51 51 50 50 49 49 49 50 50 50 50 49 49 50 50 50 50 50 50 51 52 53 54 55 54 53 53 53 52 52 53 52 50 49 49 49 48 46 44 41 40 40 41 43 45
49 49 49 49 50 50 50 50 50 50 51 51 51 52 52 53 53 52 52 52 52 52 51 51 51 52 52 52 53 53 53 54 54 54 53 52 52 52 53 54 55 55 55 55 56 55 54 53 53 52 51 50 50 50 50 48 45 42 41 41 41 42 44
49 50 50 50 50 50 50 50 50 51 51 52 52 52 53 53 53 53 53 53 53 53 53 53 54 54 55 55 55 56 56 56 56 56 56 55 55 56 57 57 57 57 57 57 57 56 54 53 52 51 51 50 50 51 51 50 47 44 44 45 44 42 42
51 51 52 52 52 52 52 51 51 51 52 53 53 53 54 54 54 55 55 55 56 56 56 56 56 56 56 56 56 56 56 56 57 57 58 59 60 61 61 59 58 58 58 57 55 53 52 52 52 51 51 51 51 52 52 51 49 47 47 50 51 48 46
51 52 53 53 53 53 54 54 54 53 54 55 55 55 55 55 56 56 56 57 57 58 58 58 58 58 58 59 59 59 59 59 59 59 60 61 62 62 60 59 58 59 58 56 53 51 50 51 51 51 52 52 52 52 51 52 52 51 51 53 55 55 53
50 50 51 52 52 53 54 55 56 57 57 57 57 57 57 57 58 58 59 59 60 60 60 61 61 61 62 63 63 62 62 61 61 61 62 61 61 60 59 60 60 60 58 56 54 52 50 51 52 52 52 54 54 53 51 52 54 55 55 56 56 57 57
50 50 50 51 52 53 54 55 56 58 58 58 58 58 58 59 59 60 61 62 62 63 64 64 64 64 64 64 64 63 62 61 61 61 61 60 60 60 61 62 61 59 58 56 55 54 53 52 53 53 53 55 57 56 54 54 56 57 56 56 56 57 58
52 52 52 53 53 54 54 55 55 56 57 58 58 59 59 59 59 60 61 63 64 64 65 65 65 65 64 63 62 62 61 61 61 61 61 61 62 63 63 62 60 59 58 57 57 56 55 54 54 54 54 55 58 59 57 56 56 57 57 56 56 57 58
55 54 55 55 55 55 55 56 56 56 57 57 58 58 59 60 60 61 62 64 65 65 66 66 66 65 64 63 62 63 63 62 62 63 63 63 63 63 62 61 61 60 59 59 58 58 57 56 56 56 56 56 57 59 60 58 57 57 57 58 58 58 58
58 57 57 57 56 57 57 57 58 58 58 59 58 59 60 62 62 63 64 65 65 64 64 63 63 63 62 61 61 62 63 63 62 63 63 62 61 61 61 61 61 61 60 60 60 59 59 59 58 58 57 57 57 58 60 60 59 58 59 59 59 59 58
60 59 59 60 60 60 61 61 61 61 60 59 59 60 61 62 63 64 64 64 64 63 62 62 62 62 61 60 60 61 62 62 62 62 62 62 62 61 61 61 61 61 61 61 61 61 61 61 60 59 58 58 59 60 61 61 61 60 60 60 59 58 57
61 62 62 62 62 62 63 63 63 62 61 60 61 61 60 60 61 63 64 64 65 64 63 63 62 62 60 59 58 60 62 62 63 64 65 65 64 63 62 62 61 61 61 61 61 61 61 61 61 61 61 61 62 63 63 63 62 62 61 59 57 55 54
64 65 64 64 64 64 64 64 65 65 66 66 66 64 62 62 64 65 65 66 65 63 61 60 59 59 59 59 60 62 64 64 64 64 65 65 64 64 64 64 63 63 62 62 62 62 63 64 64 64 64 64 64 64 64 63 62 60 59 56 54 52 51
65 66 67 67 67 67 68 68 69 70 70 70 68 67 66 66 66 66 67 67 66 64 63 61 61 62 64 65 64 63 62 61 61 61 62 63 64 66 67 68 67 66 65 64 64 64 65 65 65 66 66 65 64 64 63 63 61 59 57 54 51 51 50
66 67 67 68 69 69 69 70 70 69 68 68 67 67 67 67 67 67 69 69 69 69 68 67 67 67 68 68 66 62 60 59 59 59 58 58 57 57 59 62 64 65 65 65 65 66 66 65 65 67 67 66 65 66 64 63 62 60 58 54 52 51 51
66 67 67 68 69 69 69 69 68 68 68 68 68 68 69 69 69 70 71 71 72 71 71 70 69 69 70 69 68 66 64 62 61 60 58 55 52 51 53 57 61 64 64 64 65 68 68 67 66 67 67 66 67 68 66 65 65 64 61 58 55 54 53
66 67 68 69 70 70 70 70 70 70 70 70 70 71 71 71 72 72 73 73 72 72 71 71 70 70 70 70 70 69 68 66 65 64 63 62 61 61 62 64 67 69 68 67 68 71 73 72 71 70 69 69 69 68 66 66 67 67 66 64 60 57 55
68 69 70 71 71 71 72 72 72 72 72 72 72 72 73 73 74 75 75 75 74 73 72 72 72 73 73 73 72 72 71 71 69 69 70 71 71 71 71 73 75 76 76 75 76 79 79 78 76 74 73 72 70 67 66 67 67 67 67 66 64 61 58
71 72 73 73 73 74 74 74 74 74 74 74 74 74 75 75 76 77 77 78 77 76 75 75 76 76 77 77 76 75 75 75 74 74 75 77 77 77 77 78 79 80 80 80 82 84 83 81 78 76 74 71 68 67 67 66 66 66 66 65 63 62 60
73 74 75 75 76 76 76 76 75 75 74 74 74 74 74 75 75 75 76 77 77 76 76 76 76 76 77 77 76 75 74 74 74 74 75 76 77 77 76 78 79 80 81 82 83 83 82 80 77 73 70 67 66 66 66 65 65 65 64 63 61 59 59
72 73 73 74 74 74 74 73 73 72 70 70 70 70 70 70 70 70 71 71 71 71 71 70 70 71 72 72 71 70 68 69 69 69 69 70 71 71 73 75 75 74 75 77 79 79 78 75 72 69 66 65 65 65 65 64 64 64 63 61 60 59 58
72 72 72 72 72 72 72 72 72 71 70 68 68 67 68 68 68 67 68 68 67 67 67 66 66 67 67 67 67 66 65 66 67 67 67 67 66 67 69 71 69 68 69 72 73 74 74 72 69 67 65 64 64 65 65 66 66 65 64 62 61 60 59
73 73 74 74 74 74 75 75 75 74 73 72 71 70 70 70 70 69 68 68 67 67 67 66 66 67 67 68 68 68 67 68 68 69 69 69 67 67 68 69 69 68 68 68 70 72 73 73 72 71 68 65 64 65 67 69 69 69 68 66 64 62 61
75 75 75 76 77 77 78 79 79 79 79 78 76 75 74 74 73 71 70 69 69 69 68 68 68 69 69 70 71 71 71 71 71 71 72 72 72 71 70 70 70 70 69 69 70 72 74 75 76 76 72 68 67 68 70 71 72 72 71 69 67 65 64

ECMWFFLT1_250_spd_024.txt.gz
Wind_Speed
49 49 49 50 48 47 45 44 43 42 42 43 43 42 41 40 40 38 36 35 34 33 33 33 32 31 31 32 32 34 34 35 37 37 37 35 34 34 35 37 38 39 39 40 41 41 41 41 42 43 42 41 42 42 43 44 45 46 47 47 46 46 46
48 48 48 48 47 46 45 45 44 42 40 41 42 42 41 41 41 40 39 37 36 35 34 33 33 33 33 34 34 34 34 34 35 35 35 34 34 35 37 39 40 41 42 42 42 41 40 39 40 41 40 41 42 42 42 43 44 46 48 47 46 46 47
46 45 44 43 42 42 43 42 42 40 39 39 40 41 41 41 42 42 41 40 38 37 36 35 35 36 36 35 35 34 33 32 33 34 34 33 34 35 37 40 41 42 43 43 42 41 39 39 40 40 40 40 41 41 41 42 43 44 45 45 46 46 47
43 42 40 39 39 39 39 39 39 39 39 39 39 41 41 41 41 41 40 39 38 38 37 38 38 38 37 36 34 33 31 31 31 33 34 35 35 36 38 40 42 42 43 42 41 40 40 40 41 40 40 40 40 40 40 41 42 43 44 45 45 45 44
42 40 39 38 37 37 37 37 38 40 41 40 40 40 41 41 41 40 40 39 39 39 39 39 39 39 38 37 35 33 32 31 31 32 34 36 37 38 39 40 42 42 42 41 40 41 41 42 42 42 41 41 41 40 39 40 41 42 43 43 42 41 40
41 40 40 39 38 38 37 36 37 40 43 43 42 42 41 41 41 41 41 41 41 41 41 40 39 39 38 37 35 34 33 33 32 33 34 35 36 37 39 40 41 42 42 41 41 42 42 43 43 43 43 42 42 41 39 39 40 41 41 40 39 38 38
41 41 41 41 40 39 38 37 38 40 43 44 44 43 42 41 41 39 39 40 40 40 40 40 38 37 37 36 36 35 35 35 34 35 36 37 38 39 40 41 42 43 42 43 44 44 43 43 44 45 44 44 43 42 39 38 39 41 41 39 38 38 38
43 43 43 42 41 40 39 38 38 39 42 44 46 46 45 43 42 41 40 39 38 38 38 37 36 36 36 36 37 37 37 37 36 37 38 39 40 41 42 43 44 43 44 46 47 46 44 43 44 45 45 45 45 44 40 38 38 40 41 40 40 39 40
42 43 43 43 42 40 39 38 38 39 41 44 46 47 47 46 45 44 44 42 40 39 38 37 37 37 38 38 39 39 39 39 39 40 40 41 41 42 44 44 45 46 48 49 48 46 43 43 44 46 47 47 46 45 43 40 39 39 40 41 42 42 42
34 36 37 38 38 37 37 37 38 39 41 44 46 48 48 48 47 46 46 45 44 43 42 41 41 41 41 41 41 42 43 43 44 44 44 44 44 44 45 46 47 49 49 48 46 45 44 44 45 47 47 46 46 46 45 43 42 41 41 42 43 43 44
29 31 32 33 34 35 35 35 36 38 39 42 45 47 48 49 49 48 47 46 45 44 44 43 43 43 43 44 44 45 46 47 47 47 47 47 47 47 48 49 49 48 47 45 45 45 45 46 47 47 46 46 46 47 46 46 46 46 45 44 44 44 45
32 33 34 34 34 35 35 35 35 36 37 40 42 45 46 47 47 47 47 46 45 44 44 44 44 44 45 45 47 47 48 49 49 49 49 49 49 49 49 49 48 47 46 46 46 46 47 48 48 48 47 47 48 48 49 49 49 49 48 47 46 45 45
32 33 34 35 35 36 36 36 37 38 39 41 43 45 46 47 47 47 46 46 46 46 46 46 46 46 46 47 48 48 49 50 50 50 50 50 50 50 49 49 48 48 48 48 49 49 50 50 49 49 48 50 51 51 51 51 51 50 49 48 47 46 46
33 33 33 34 35 37 39 40 42 43 46 47 47 46 47 48 48 49 49 49 49 49 49 49 49 48 48 49 49 49 50 50 50 50 50 50 50 50 50 50 50 50 50 51 51 51 51 51 51 51 51 53 54 53 52 53 52 50 49 48 47 46 47
37 38 39 38 38 40 42 45 47 49 51 51 50 49 49 49 49 50 50 51 51 51 51 50 50 50 50 50 50 50 50 50 50 50 50 51 51 51 52 52 52 52 52 52 52 52 52 52 53 53 55 55 54 52 52 52 52 50 49 48 47 47 47
46 47 48 47 46 46 46 48 50 52 53 52 52 51 50 50 50 50 50 50 50 51 51 51 50 50 50 50 50 50 51 51 51 52 52 53 53 54 54 54 54 54 54 54 54 54 54 54 54 55 56 55 54 52 51 50 49 48 48 48 48 48 48
50 49 49 50 51 51 51 52 52 52 52 52 52 51 51 51 51 51 51 50 50 50 51 51 51 51 52 52 52 52 53 53 53 53 54 55 55 56 56 57 57 57 57 57 56 56 55 55 55 54 54 54 53 52 50 48 47 47 48 48 48 49 49
43 43 44 46 48 50 51 51 51 50 50 50 50 51 51 51 51 51 51 51 51 51 52 52 52 52 53 53 53 54 54 54 55 55 56 57 58 59 59 60 60 60 59 58 57 56 56 56 56 54 53 53 54 53 50 47 46 47 49 49 49 49 50
38 41 45 48 49 50 49 49 50 51 51 50 50 50 50 50 51 51 52 52 53 53 54 54 54 54 55 55 55 55 56 56 56 57 58 58 59 60 61 61 61 60 59 58 57 56 57 57 57 56 54 53 53 52 51 50 49 49 50 51 51 50 51
44 47 50 52 51 51 51 50 50 51 52 52 51 51 51 51 52 53 53 53 53 54 54 54 55 55 55 56 56 56 57 57 57 58 58 59 59 60 60 60 60 59 58 57 57 56 56 57 58 58 56 54 53 52 52 52 52 52 52 52 52 52 52
49 47 46 46 46 48 49 51 52 52 52 53 53 53 53 53 54 54 54 54 54 54 54 54 55 55 56 56 57 57 58 58 59 59 59 60 60 60 59 58 58 58 58 57 57 57 56 57 58 58 57 56 55 54 53 53 53 54 54 54 54 54 54
46 40 39 41 44 46 47 49 52 53 53 53 54 54 55 56 56 56 56 56 56 55 55 55 55 56 57 57 58 59 59 60 60 61 61 61 60 59 57 56 56 57 57 57 57 57 57 57 57 58 58 58 58 57 56 55 54 54 55 56 57 57 57
44 40 40 41 42 44 45 47 49 51 52 53 55 56 57 58 58 58 58 57 57 57 58 58 57 56 57 57 59 59 60 60 61 61 61 61 60 59 58 58 57 57 57 57 57 58 58 59 59 59 60 60 60 60 59 58 56 55 55 57 57 58 57
46 44 42 41 43 44 46 49 51 52 53 55 57 59 59 59 59 59 59 60 60 61 62 61 61 60 58 59 60 61 61 61 61 61 61 61 61 60 59 59 58 58 58 59 60 61 62 62 62 62 61 61 60 60 59 59 58 57 56 56 56 57 57
55 51 47 48 53 54 53 55 57 59 60 62 63 63 63 62 61 61 61 62 63 64 65 65 65 64 63 63 64 64 64 64 64 64 64 63 62 61 59 60 60 62 63 64 65 65 64 64 63 62 62 61 61 61 61 60 59 58 57 55 56 57 58
65 61 58 59 64 66 65 65 67 69 71 72 71 70 70 69 68 66 65 65 65 66 67 68 68 68 68 68 68 67 66 67 67 67 66 65 63 62 62 64 65 66 67 67 66 65 65 65 66 66 65 64 63 63 62 60 59 59 58 57 57 57 58
69 68 68 68 71 73 74 75 76 76 76 74 73 72 72 72 71 70 69 69 69 69 70 70 71 71 72 72 71 69 67 66 66 66 65 65 65 65 66 67 67 67 68 67 67 66 67 68 68 68 67 66 64 64 63 62 61 61 62 61 61 60 61
72 72 72 73 74 76 77 78 78 77 75 74 73 72 72 71 71 71 71 71 70 71 71 71 72 72 73 73 72 70 68 67 66 66 66 67 67 68 68 67 67 67 67 67 66 66 65 65 65 66 67 68 68 68 68 68 67 66 66 66 66 66 66
73 72 72 73 74 74 75 76 76 75 74 74 73 72 72 72 72 72 72 71 71 71 71 71 71 72 72 72 71 70 70 69 69 69 69 69 70 70 69 69 68 68 67 67 66 66 65 63 64 67 70 70 70 71 73 73 72 71 70 70 70 70 70
74 73 72 72 72 72 73 74 74 74 74 74 74 73 73 73 73 73 72 72 72 72 72 72 72 72 72 72 72 71 71 70 70 71 72 72 72 72 72 71 68 67 67 68 69 70 69 68 69 71 72 72 73 74 76 77 77 76 76 75 74 73 72
76 75 74 73 73 72 73 73 74 74 75 75 75 75 75 74 74 74 73 73 73 72 73 73 73 73 73 73 73 73 73 72 71 71 73 75 75 75 75 74 72 69 71 73 73 73 74 74 74 75 76 78 80 80 80 81 81 81 80 79 76 74 73
79 77 75 74 74 74 74 74 74 74 75 75 75 76 76 76 75 75 75 75 74 74 74 75 75 76 76 76 76 76 75 75 75 75 76 77 77 77 76 76 76 75 76 78 78 77 77 77 77 78 80 81 83 84 84 84 84 84 82 79 75 72 69
79 78 76 75 75 74 74 75 75 75 75 76 77 77 77 77 77 77 77 77 77 76 76 76 77 77 76 76 75 75 74 74 74 75 76 75 75 75 75 75 75 75 75 76 75 76 76 76 76 77 78 79 81 82 82 82 81 81 79 75 71 67 65
76 76 75 75 75 74 74 74 75 75 76 76 76 76 76 76 76 76 76 76 75 75 75 74 74 74 73 72 72 72 71 71 71 72 72 72 71 72 71 72 72 72 71 71 70 70 71 71 70 70 72 74 75 75 75 76 76 76 75 72 68 66 65
73 73 72 72 72 72 72 72 72 72 73 73 73 73 73 73 73 73 74 74 74 73 73 73 72 72 72 72 71 71 71 71 71 71 70 70 70 70 70 71 70 70 69 69 68 68 68 68 68 67 68 71 72 71 71 72 72 73 73 71 69 67 66
72 71 71 71 71 71 71 71 71 72 72 72 72 72 72 72 71 72 72 73 73 73 73 73 73 73 74 74 74 73 73 73 73 72 71 71 71 71 72 72 72 71 70 70 70 69 68 69 69 69 70 71 70 70 70 72 73 73 73 73 72 71 69
75 74 74 74 74 74 74 74 74 74 74 74 73 73 73 73 73 73 73 73 74 75 75 74 74 75 76 77 77 76 75 75 75 75 74 74 74 75 75 75 75 74 73 72 72 70 70 70 71 72 73 74 73 72 71 72 73 74 74 74 75 74 72

ECMWFFLT1_250_spd_030.txt.gz
Wind_Speed
47 48 48 49 49 49 48 48 47 46 45 44 44 44 44 44 43 41 40 37 35 33 33 32 31 31 29 28 27 26 25 26 26 25 25 26 27 27 28 28 27 27 29 31 32 32 32 31 30 29 29 31 34 36 37 38 38 38 40 41 40 40 40
45 46 46 46 46 46 45 45 44 44 44 43 43 42 42 41 40 39 37 36 34 33 32 32 31 30 29 28 27 27 27 27 27 26 26 26 26 26 28 30 29 28 30 31 32 32 31 30 29 29 30 32 34 36 38 38 39 40 41 41 41 41 40
43 43 44 44 43 43 43 43 43 42 42 41 41 40 40 39 38 37 36 34 32 31 31 31 31 30 29 28 28 28 28 28 27 27 26 26 27 27 29 32 31 30 31 32 33 32 32 31 30 30 31 33 36 38 39 40 41 42 42 42 41 41 41
41 41 42 42 42 41 41 42 42 41 40 39 39 38 37 36 35 35 34 32 30 29 29 29 30 29 28 27 28 28 28 28 28 28 27 28 29 31 32 33 33 33 33 34 34 33 33 32 31 31 33 35 38 40 41 42 42 42 42 42 41 41 43
40 40 40 40 40 40 40 41 40 39 38 37 36 35 34 34 34 33 32 30 28 27 27 27 28 28 27 27 27 28 28 29 29 29 30 31 31 32 33 34 35 35 34 34 34 34 34 34 33 33 35 37 39 41 42 42 42 41 42 42 43 44 45
39 39 39 39 39 39 39 39 38 36 35 34 33 33 33 33 33 32 31 29 28 27 27 27 27 27 28 28 28 29 29 29 30 30 31 31 32 33 33 34 35 35 34 35 35 35 35 35 35 36 37 38 40 41 42 42 42 42 43 44 45 46 46
39 39 39 38 37 37 38 37 36 34 33 33 32 33 33 33 33 32 31 30 29 28 28 27 27 28 28 29 29 29 29 29 30 30 30 31 31 32 33 34 34 34 34 35 35 36 36 36 36 38 39 40 41 42 42 42 43 44 45 46 46 46 47
39 39 38 38 37 37 37 37 35 34 34 34 33 33 33 32 33 32 32 31 30 29 29 29 29 29 29 29 29 29 29 29 30 30 30 31 31 32 33 33 33 34 34 35 36 37 37 37 38 39 40 41 42 43 43 44 45 45 46 47 47 48 49
38 38 37 37 36 35 36 35 34 34 34 34 34 33 33 32 33 33 33 32 31 30 30 30 30 29 29 29 30 30 31 31 32 32 32 32 32 33 33 34 34 36 37 37 38 38 38 38 39 40 41 42 43 44 45 46 46 47 47 48 49 49 49
36 36 35 34 33 32 32 32 32 32 32 32 32 31 30 29 29 29 29 29 28 28 28 28 28 28 27 27 27 28 30 31 31 32 33 33 33 34 35 36 37 38 39 39 39 39 40 40 41 43 44 44 45 46 47 48 48 49 50 50 49 49 48
32 31 31 31 30 30 30 29 29 29 28 28 28 27 25 24 24 24 25 24 24 24 25 25 25 24 24 24 25 26 28 29 30 31 32 33 33 34 36 37 38 39 40 40 41 41 42 42 43 45 46 47 47 48 48 49 50 51 51 50 49 48 48
26 27 29 29 29 29 29 28 28 27 27 26 25 25 24 23 22 23 23 23 23 23 23 22 22 22 22 23 24 26 27 29 30 32 32 33 34 35 36 38 39 40 41 42 42 43 43 44 45 46 47 48 48 49 49 50 51 51 50 50 50 49 49
21 23 26 28 29 29 30 29 29 28 26 25 24 24 23 23 23 23 23 23 24 24 24 24 24 24 24 25 26 28 29 30 32 33 34 35 36 37 38 40 41 42 43 43 44 44 45 45 46 47 47 48 49 49 50 50 50 50 50 50 50 50 49
20 20 22 24 25 27 29 30 30 29 27 26 25 24 24 24 24 25 25 25 25 26 26 26 27 28 29 30 30 30 31 32 34 35 36 37 38 39 40 42 43 43 44 44 45 45 46 46 46 46 47 48 48 49 49 49 50 50 50 50 51 51 51
23 23 24 24 24 24 26 29 29 30 29 29 28 28 28 28 29 29 29 29 29 29 29 30 31 31 32 32 32 31 32 33 34 35 37 38 38 39 40 41 42 43 43 44 45 45 46 46 46 46 47 48 48 49 49 50 50 50 50 50 51 52 52
24 26 28 29 28 28 30 32 33 34 33 32 32 32 32 32 32 32 32 32 32 32 32 32 32 32 32 33 32 32 31 32 34 35 36 37 38 38 39 39 40 41 42 43 44 45 46 46 47 47 47 48 48 49 49 49 50 50 50 51 51 52 52
26 28 30 31 31 31 33 35 37 38 37 36 36 36 36 36 35 35 35 34 34 35 36 36 36 36 37 36 35 33 32 32 33 34 36 37 38 38 38 39 40 41 42 43 44 45 46 47 48 48 48 48 48 49 49 49 50 50 51 52 52 52 53
28 29 32 33 32 32 34 36 38 38 37 37 37 37 38 38 37 37 37 37 39 40 42 42 42 41 40 39 37 35 34 34 34 35 36 38 39 40 40 41 42 44 45 46 47 48 48 49 49 49 50 50 50 50 50 51 51 52 53 53 54 54 54
30 29 30 32 33 33 34 36 38 38 38 39 39 40 40 41 41 41 43 44 46 47 47 46 45 43 42 41 39 38 37 35 35 36 38 39 40 42 42 44 46 47 48 49 50 50 51 51 51 51 52 53 53 53 53 54 54 55 55 56 56 55 56
34 32 31 31 31 33 34 34 35 36 37 38 39 40 42 43 44 45 46 47 48 48 47 47 46 45 44 43 41 41 40 39 38 39 40 42 43 44 46 48 50 52 52 53 53 54 54 54 54 55 56 56 56 56 56 57 57 57 57 57 57 57 57
34 35 34 33 33 35 36 35 35 36 36 38 40 41 42 42 43 43 44 45 46 46 47 47 47 47 46 45 44 43 43 42 42 42 43 45 47 48 50 52 54 56 56 57 57 57 58 58 58 59 59 59 59 59 59 58 58 58 58 58 58 58 58
40 39 37 35 35 35 37 38 39 41 42 42 43 43 43 42 42 43 43 44 44 44 44 45 46 47 47 46 46 46 46 46 47 47 48 50 51 53 55 57 58 60 60 60 59 59 60 61 62 61 61 61 61 61 60 60 59 59 59 59 59 59 59
49 46 43 40 38 38 38 40 41 43 44 44 43 43 43 42 43 43 43 43 43 43 44 46 47 48 48 48 49 50 50 51 52 53 55 56 57 58 60 61 62 63 63 62 60 60 60 62 62 62 62 61 61 61 60 59 59 59 59 59 59 59 59
51 49 47 46 45 45 44 43 43 43 43 44 45 46 46 46 46 46 45 46 47 49 51 51 51 51 52 52 53 54 55 56 57 58 59 60 62 63 64 64 64 64 64 63 61 60 60 61 61 62 61 61 60 60 60 59 59 59 60 60 60 60 60
54 53 51 50 51 51 50 47 46 45 46 47 48 50 51 52 52 51 52 53 54 56 58 58 57 56 56 56 57 58 60 61 62 63 64 65 66 66 67 66 66 65 64 63 61 60 60 60 60 60 60 60 60 60 59 59 59 60 60 60 60 60 60
56 57 56 55 54 55 54 52 50 50 51 52 53 54 55 56 57 57 58 58 59 61 63 63 61 61 60 60 62 63 64 64 65 66 67 69 69 69 69 68 67 66 65 63 61 60 59 59 59 58 59 59 60 60 59 59 60 60 60 60 60 61 62
58 60 60 58 58 59 59 59 58 57 57 58 59 59 59 60 61 62 62 63 63 64 65 66 65 64 63 64 66 67 67 68 69 70 71 71 71 71 71 69 68 67 65 63 61 60 59 59 59 59 59 60 60 60 60 60 60 61 61 62 62 63 64
62 62 62 61 61 63 65 65 65 64 63 62 62 63 63 63 64 65 66 67 68 68 68 68 69 68 69 70 71 71 71 72 73 73 73 73 73 73 72 70 69 67 66 64 62 61 61 60 60 60 60 60 60 60 60 60 59 60 61 61 62 62 62
67 67 66 65 65 67 68 68 69 68 67 65 65 65 66 67 67 67 67 68 70 71 71 72 72 73 75 76 76 76 76 76 76 76 76 76 76 75 73 71 69 68 67 65 64 63 62 61 61 60 60 60 60 60 60 60 59 60 60 59 59 60 61
69 70 69 67 66 68 70 70 70 71 71 72 71 70 70 70 70 69 68 67 68 69 71 73 75 77 79 80 81 81 80 80 79 79 79 79 78 76 74 72 70 69 67 66 65 64 63 62 61 60 60 60 60 60 60 60 60 60 60 60 60 61 61
70 72 73 71 70 70 72 72 71 73 75 77 77 77 77 76 75 74 74 74 73 73 74 75 77 79 81 83 84 84 84 83 82 82 81 80 78 76 73 71 70 68 66 65 64 64 64 63 62 61 61 61 61 60 60 61 61 61 62 62 62 62 62
74 75 75 76 75 74 75 75 74 74 76 78 80 81 82 82 82 82 83 84 85 85 84 84 84 84 85 87 87 88 88 87 86 84 83 80 77 73 71 69 68 67 66 66 65 64 64 64 63 63 63 62 62 62 63 63 63 63 65 65 65 64 65
77 78 79 79 80 80 80 80 79 78 80 82 84 85 86 87 87 87 89 90 91 92 92 92 92 92 92 93 93 93 92 91 89 87 84 79 75 71 70 69 69 69 68 68 67 67 67 66 66 66 65 65 65 66 66 66 66 66 67 67 67 67 67
79 80 81 82 83 83 84 85 85 84 84 86 89 90 91 92 91 91 92 93 94 95 96 97 98 98 98 98 98 97 96 94 91 88 83 79 75 72 71 71 72 72 71 71 71 71 71 71 71 71 70 71 71 71 70 70 70 70 70 70 70 70 70
81 82 83 84 84 85 86 87 88 88 88 89 91 93 94 94 95 95 95 96 97 98 99 100 100 100 100 100 99 97 95 92 89 86 81 78 76 75 74 74 74 75 75 75 74 75 75 76 76 75 75 75 76 77 76 76 75 74 74 74 74 73 73
83 83 84 84 84 85 86 88 89 91 91 92 93 94 95 96 96 97 97 98 98 98 98 99 99 99 99 98 97 94 91 88 86 84 81 79 78 78 77 77 77 78 79 79 79 79 79 79 79 79 79 79 80 80 80 80 80 80 80 79 78 78 77
85 85 85 86 86 86 87 88 89 90 91 92 93 94 95 95 96 97 98 98 98 99 99 99 99 99 99 97 96 94 91 88 87 85 84 82 81 81 80 80 80 81 82 83 83 84 84 84 83 83 84 84 84 83 83 83 84 84 84 84 83 83 82

ECMWFFLT1_250_spd_033.txt.gz
Wind_Speed
39 39 40 40 40 40 40 41 41 41 41 41 41 42 41 41 40 39 39 38 37 37 36 35 34 31 30 30 31 31 31 31 29 27 26 27 27 26 27 28 28 28 28 28 27 26 25 25 26 27 29 30 30 29 27 26 27 29 30 31 32 33 34
37 37 38 38 38 38 38 38 38 38 39 39 39 39 39 38 38 37 37 36 35 35 34 33 31 30 29 30 31 31 31 30 29 28 28 28 29 28 28 28 28 28 28 28 27 26 26 27 27 29 30 31 30 28 27 27 28 29 31 32 33 34 35
35 36 36 36 36 37 37 36 36 36 36 37 37 37 37 36 36 35 35 34 34 32 31 30 29 28 29 30 31 31 31 30 29 29 29 29 30 29 28 28 28 28 28 28 28 28 28 28 29 30 31 31 30 29 28 28 30 31 32 34 35 36 37
34 34 34 35 35 35 35 35 35 35 35 35 35 35 35 35 34 34 33 32 31 29 28 28 27 28 28 30 30 31 30 30 29 30 31 30 29 28 27 27 28 30 30 30 30 30 29 29 30 31 31 31 31 31 30 31 32 33 34 36 37 38 38
33 33 34 34 34 34 34 34 34 34 34 34 34 34 34 33 33 32 30 29 27 26 26 26 27 28 28 29 29 29 29 29 30 30 29 28 27 27 26 26 28 32 32 33 33 31 30 30 30 31 31 32 32 32 32 33 34 35 36 37 38 38 38
33 33 34 34 34 34 34 34 34 34 33 33 33 33 32 31 30 29 27 26 25 25 26 27 28 28 28 29 29 29 28 28 29 28 27 28 28 28 27 26 29 33 33 32 32 31 30 30 31 31 32 32 33 33 33 34 35 36 37 37 37 37 37
33 33 34 34 34 34 34 34 34 34 34 33 32 31 30 29 28 27 25 25 26 27 27 28 28 28 28 29 29 29 29 29 29 30 30 31 31 29 28 27 29 31 32 31 31 30 30 31 32 32 32 33 33 34 34 35 36 36 37 37 37 38 38
33 34 34 34 34 35 35 35 34 34 34 33 32 31 30 29 28 28 27 27 28 28 29 29 29 29 29 29 30 30 31 31 31 31 31 31 30 30 29 29 30 31 32 32 31 31 31 32 33 33 33 34 35 35 36 36 37 37 38 39 39 40 40
33 33 33 34 34 35 35 35 34 34 34 33 32 31 30 30 30 30 29 29 30 30 30 30 30 31 31 31 32 32 32 31 31 30 31 31 31 32 32 32 33 33 33 33 32 32 33 34 35 35 35 36 37 37 37 38 38 39 40 41 42 43 43
32 32 32 33 33 34 34 34 33 33 33 33 32 31 30 30 31 31 31 31 31 31 31 31 32 32 33 33 33 33 33 32 31 31 31 31 31 31 31 31 31 32 32 32 33 33 34 35 36 37 37 38 38 39 39 40 41 42 43 44 45 46 46
29 29 30 30 31 31 32 31 31 31 31 31 30 30 29 29 30 30 30 30 31 31 31 31 32 32 33 33 33 32 31 30 29 28 27 27 27 28 28 28 29 29 30 31 32 33 34 36 37 37 38 40 41 42 43 43 44 45 46 47 47 48 48
25 25 25 24 25 26 27 27 26 27 28 27 27 27 27 27 28 28 28 28 29 29 29 28 28 29 29 29 29 29 28 27 25 23 23 24 26 27 28 29 30 30 30 31 31 32 33 36 37 38 39 41 42 44 45 45 46 47 47 48 49 49 49
20 20 19 19 19 20 22 23 23 23 24 24 24 24 25 25 25 25 26 26 26 26 26 26 26 27 27 27 27 27 27 25 24 23 24 25 26 28 29 30 30 31 31 32 32 32 33 35 36 37 38 40 41 43 44 45 46 47 47 47 48 48 49
17 17 16 16 16 16 18 20 22 23 23 24 24 25 25 25 25 25 25 26 26 27 27 27 27 27 27 27 27 27 27 26 26 26 27 27 27 28 29 29 29 29 30 31 31 31 31 31 33 35 36 38 40 42 44 45 46 47 47 48 48 48 49
19 19 19 18 18 17 17 18 21 23 25 27 28 28 28 27 27 26 25 26 27 27 27 27 28 28 28 28 28 27 27 27 27 28 28 28 29 29 28 27 27 27 28 29 30 30 29 30 32 34 36 38 40 42 44 45 47 48 49 49 49 49 49
22 22 23 23 22 21 21 21 22 23 25 28 29 30 31 31 30 28 27 27 27 27 27 28 29 29 30 30 30 29 29 29 30 31 32 32 32 30 29 28 27 27 27 28 29 30 30 32 35 37 40 42 43 44 44 45 47 48 50 51 51 51 51
24 24 26 26 26 25 25 26 27 27 28 29 30 30 31 32 32 31 31 30 31 31 31 32 32 33 33 33 33 33 32 33 34 36 36 35 33 31 31 30 29 29 29 29 30 31 33 35 38 41 44 47 48 48 48 48 48 49 50 52 53 53 53
26 26 27 28 29 29 30 31 31 31 32 33 33 33 33 34 34 35 35 35 35 36 36 36 37 37 38 38 38 38 39 40 41 41 39 36 34 34 33 32 31 31 32 33 34 35 37 39 42 45 48 50 51 52 52 51 51 51 52 54 55 55 56
27 28 30 31 32 34 35 36 35 34 34 35 36 36 37 38 38 39 39 39 39 39 39 40 40 40 41 41 42 43 44 45 45 43 40 38 37 37 37 36 36 36 36 38 39 41 43 45 47 49 51 52 53 54 54 54 53 53 53 54 55 56 57
27 29 32 34 36 37 38 39 38 38 38 38 37 37 37 38 39 39 40 40 40 40 41 41 41 41 41 42 42 42 42 43 42 41 41 41 41 42 42 42 41 41 41 42 44 46 48 50 52 53 55 55 56 57 56 55 54 53 52 52 53 54 54
29 31 33 37 40 41 41 40 39 39 41 41 41 40 40 40 40 40 41 41 41 41 42 42 42 42 42 42 42 41 41 41 42 42 43 44 45 46 46 47 47 47 47 48 49 51 53 54 56 57 58 59 60 60 60 58 56 54 53 52 51 51 52
32 33 35 37 40 43 45 45 45 44 43 43 43 44 44 45 45 44 44 43 43 44 44 45 45 45 44 44 43 43 44 45 45 46 47 47 48 49 50 51 51 52 52 53 54 55 57 58 59 61 63 63 64 63 62 61 58 56 54 53 52 51 51
31 33 35 37 41 44 46 47 47 47 46 46 46 48 49 49 49 49 48 47 48 48 48 48 48 47 46 46 47 47 48 49 50 50 51 52 53 53 54 55 56 56 57 59 60 61 62 63 64 65 67 67 67 66 64 63 60 58 56 54 53 52 52
34 36 37 39 41 44 45 45 46 47 48 49 50 50 51 51 51 50 49 49 50 50 50 50 49 49 49 49 51 52 53 53 54 54 55 55 56 57 57 58 59 61 62 64 65 66 67 68 68 69 70 70 69 67 66 65 62 60 57 56 55 54 55
38 39 39 39 40 42 44 45 46 47 48 48 49 49 50 50 50 50 50 49 50 50 50 49 50 50 51 52 53 54 55 56 56 57 57 58 59 59 60 61 63 64 66 68 69 70 71 71 71 72 72 71 70 69 68 66 63 60 59 57 57 57 57
40 42 42 43 43 44 45 45 46 46 46 46 47 47 48 49 49 48 48 48 48 47 48 48 50 51 53 54 55 56 58 59 59 59 60 60 61 62 62 63 64 66 67 69 70 72 72 72 73 73 72 71 70 69 68 66 63 60 59 58 57 57 57
45 46 47 48 48 49 49 49 49 49 50 50 52 52 53 53 53 52 51 51 51 51 52 53 54 55 56 57 58 58 59 60 60 60 61 61 62 63 64 64 65 67 69 70 72 73 74 74 75 74 73 72 70 69 68 65 62 60 59 57 57 56 56
51 52 53 52 53 53 53 54 54 54 55 56 57 58 59 60 60 60 60 60 60 60 61 61 61 62 62 63 63 62 62 62 62 63 64 65 66 66 67 68 70 72 73 75 77 77 78 78 77 76 74 73 71 70 67 64 61 59 58 58 57 56 55
57 58 58 58 58 58 58 58 58 59 59 60 61 62 62 63 63 64 65 66 66 67 67 67 67 68 69 69 69 68 67 67 67 67 68 69 70 71 73 74 76 78 80 81 82 82 82 81 79 78 76 74 72 70 66 63 61 60 59 58 57 56 55
62 62 62 62 62 61 61 61 61 62 63 64 65 66 66 67 67 68 69 70 70 71 71 71 72 72 72 72 72 72 73 73 73 73 73 75 76 78 80 81 82 83 84 85 86 85 84 82 80 78 76 74 72 69 66 63 62 61 60 59 58 57 56
66 65 65 64 63 62 62 63 63 63 64 65 67 68 69 70 71 72 73 74 75 75 76 76 76 75 75 75 75 75 77 78 79 80 81 82 83 84 85 86 86 87 87 88 88 87 86 83 80 78 76 74 72 69 67 67 66 64 62 61 60 60 59
67 67 66 66 65 66 66 67 67 67 68 68 69 69 70 72 74 75 77 78 79 80 80 81 81 80 80 80 80 80 81 82 83 85 85 86 87 87 88 89 89 89 89 89 89 88 87 85 82 79 76 74 71 70 70 71 69 68 67 66 65 65 64
70 71 71 71 71 71 71 71 71 72 74 74 73 73 73 75 77 80 82 83 83 85 86 86 86 86 86 85 85 85 85 86 86 87 88 88 89 89 90 90 90 90 89 89 88 88 86 84 82 79 76 74 72 72 73 73 72 72 71 70 70 70 70
73 75 75 75 75 75 75 74 75 76 78 78 77 77 77 78 79 81 84 84 85 85 87 87 87 88 88 87 87 87 87 87 88 88 89 90 90 90 90 90 90 90 89 88 87 86 85 83 81 79 77 76 75 75 75 75 75 75 74 74 74 74 74
75 76 78 79 79 79 79 78 79 80 81 81 81 81 81 81 81 82 83 84 84 84 85 86 88 88 89 89 88 89 89 89 90 90 90 91 91 91 90 90 89 89 88 87 86 84 84 83 83 82 81 81 80 80 79 78 78 78 78 78 77 77 77
76 78 79 81 82 83 83 82 82 83 83 84 84 84 84 85 85 85 85 86 87 88 89 89 90 90 91 91 91 90 90 90 90 90 90 90 90 90 90 90 90 89 88 88 87 86 86 86 85 85 85 85 85 85 84 82 81 82 82 82 82 81 82
79 79 80 81 82 84 84 84 84 84 85 86 86 87 88 89 89 89 89 89 90 90 90 91 91 91 92 92 92 91 91 90 90 90 90 90 91 91 91 91 90 90 90 90 89 89 89 89 89 89 89 89 89 88 87 86 86 87 87 87 87 87 87